SCP
-0 -1 -0 -0 -1 -0 -1 -1 -1 -1 -1 -1 -1 -1 -1 -1 -0 -0 -0 -0 0 0 0 0 0 0 0 0 0 0 0 0 0 0 0 0 0 0 0 0 0 0 0
-1 -1 -1 -0 -1 -1 -1 -1 -2 -2 -1 -1 -1 -1 -1 -1 -0 -0 -0 0 0 0 0 0 0 0 -0 0 0 0 0 0 -0 -0 -0 0 0 0 0 0 0 0 0
-1 -1 -1 -1 -0 -0 -1 -1 -2 -2 -1 -1 -1 -1 -1 -1 -0 -0 -0 0 0 0 0 0 0 0 0 0 0 0 0 0 0 0 -0 -0 0 0 0 0 0 0 0
-0 -0 -0 -0 -0 -0 -0 -1 -1 -1 -1 -1 -1 -1 -1 -0 -0 -0 0 0 0 0 0 0 0 0 0 0 0 0 0 0 0 0 0 0 0 0 0 0 0 0 0
0 -0 -0 -0 -1 -0 -0 -0 -1 -1 -1 -1 -1 -1 -1 -0 -0 -0 0 0 0 0 0 0 -0 0 0 0 0 0 0 0 0 0 0 0 0 0 0 0 0 0 0
0 0 -0 -0 -0 -0 -0 -0 -0 -1 -1 -1 -1 -1 -0 -0 -0 -0 0 0 0 0 -0 0 -0 -0 0 0 0 0 0 0 0 0 0 0 0 0 0 0 0 0 0
0 0 0 0 -0 -0 -0 -0 -0 -0 -0 -0 -0 -0 -0 -0 -0 -0 0 0 0 -0 -0 -0 -0 -0 -0 -0 0 0 0 0 0 0 0 0 0 0 0 0 0 0 0
0 0 0 0 0 0 0 -0 -0 -0 -0 -0 -0 -0 -0 -0 -0 -0 0 -0 -0 -0 -0 -0 -0 -0 -0 -0 -0 -0 0 0 0 -0 0 0 0 0 0 0 0 0 0
0 0 0 0 0 0 0 0 0 -0 0 0 0 0 0 0 0 0 0 0 0 0 -0 -0 -0 -0 -0 -0 -0 -0 -0 -0 -0 -0 0 0 0 0 0 0 0 0 0
1 1 0 0 0 0 0 1 0 0 0 0 0 0 0 0 0 0 0 0 0 0 0 0 -0 -0 -0 -0 -0 -0 -0 -0 0 -0 0 0 0 0 -0 0 0 0 0
1 1 1 0 0 0 0 0 0 0 0 0 0 0 0 0 0 0 0 0 0 0 0 0 0 0 0 0 0 0 0 0 0 -0 -0 0 -0 -0 -0 0 0 0 0
0 0 0 0 0 0 0 0 0 0 0 0 0 0 0 0 0 0 0 0 0 0 0 0 0 0 0 0 0 0 0 0 0 0 0 0 0 0 -0 -0 0 0 0
-0 -0 -0 0 0 0 0 0 1 1 1 0 0 0 0 0 0 0 0 0 0 0 0 0 0 0 0 0 0 0 0 0 0 0 0 0 0 0 0 0 0 0 0
-0 -0 0 0 0 0 0 0 0 1 1 0 0 0 0 0 0 0 0 0 0 0 0 0 0 0 0 0 0 0 0 0 0 0 0 0 0 0 0 0 0 0 0
0 0 0 1 1 1 1 1 1 1 0 0 1 0 0 0 0 0 0 0 0 0 0 0 0 0 0 0 0 0 0 0 0 0 0 0 0 0 0 0 0 0 0
0 0 1 1 1 1 1 1 1 1 1 1 1 1 1 1 1 1 0 0 0 0 0 0 0 0 0 0 0 0 0 0 0 0 0 0 0 0 0 0 0 0 0
-0 0 -0 0 1 1 1 1 1 1 1 1 1 1 1 1 1 1 1 1 0 0 0 0 0 0 0 0 0 0 0 0 0 0 0 0 0 0 0 0 0 1 1
0 0 1 1 1 1 1 1 1 2 1 1 1 1 1 1 1 1 1 1 1 1 1 1 1 0 0 0 0 1 0 0 0 0 0 0 0 0 0 0 0 0 1
0 0 0 1 1 1 1 2 2 2 3 2 1 1 1 1 1 1 1 1 1 1 1 1 1 1 1 1 1 1 1 0 0 0 0 0 0 0 0 0 0 1 0
0 1 1 1 1 1 2 2 2 2 2 1 1 1 1 1 1 1 1 1 1 1 1 1 1 1 1 1 1 1 1 1 1 0 0 0 0 0 0 0 0 0 1
0 1 1 1 1 1 1 2 2 2 2 2 1 1 1 1 1 1 1 1 1 1 1 1 1 1 1 1 0 0 0 0 1 1 1 1 1 0 0 1 1 1 1
0 1 0 0 1 1 1 1 1 0 0 1 1 1 1 1 1 1 0 0 0 0 0 0 1 0 0 1 1 0 0 0 0 0 1 1 1 1 1 1 1 1 1
0 0 0 0 0 0 0 0 0 0 0 0 0 0 0 0 0 0 0 0 0 0 0 0 0 0 0 0 1 1 0 0 0 0 -0 0 1 1 1 1 2 3 3
0 0 0 0 0 0 0 0 0 0 0 0 0 0 0 0 0 0 0 0 0 0 0 0 0 0 0 0 0 0 1 1 1 0 0 1 1 1 1 1 1 2 2
0 0 0 0 0 0 0 0 0 0 0 0 0 0 0 0 0 0 0 0 0 0 0 0 0 0 0 0 0 0 1 1 1 1 0 0 1 1 1 1 1 1 2
0 0 0 0 0 0 0 0 0 0 0 0 0 0 0 0 0 0 0 0 0 0 0 0 0 0 0 0 0 0 0 0 0 1 2 1 0 1 1 2 2 2 2
Wind_Speed_500mb
56 52 50 47 45 43 41 40 48 53 51 46 40 33 26 20 20 29 30 31 32 36 35 31 27 25 25 25 27 28 26 26 27 28 28 27 25 25 23 21 19 18 16
56 54 52 49 48 45 42 44 48 51 48 43 37 30 25 20 23 30 30 31 36 35 31 27 25 25 25 26 28 25 24 26 27 28 29 28 27 25 24 21 19 16 14
56 55 53 52 50 48 44 42 45 46 44 39 33 29 25 22 26 31 31 33 35 30 26 24 25 25 24 25 24 23 24 23 22 23 25 24 25 25 23 20 19 16 12
56 55 55 53 50 49 45 42 42 42 40 37 33 28 23 22 29 33 33 33 31 27 25 24 24 22 22 22 21 20 20 19 19 20 22 22 23 23 21 17 16 15 13
56 55 55 52 48 46 43 41 38 38 37 36 32 28 23 25 32 35 34 32 30 26 24 24 22 20 19 20 17 15 15 14 15 16 15 16 17 17 19 17 15 12 10
56 55 55 52 47 44 41 38 36 35 35 33 29 26 24 29 34 35 33 31 28 24 23 22 20 18 17 17 15 11 8 7 7 7 6 8 10 10 13 14 13 11 9
58 56 55 53 48 44 40 37 36 35 33 29 26 25 27 33 36 35 33 30 26 23 22 21 18 16 16 15 14 12 8 5 1 1 0 0 2 6 7 7 8 8 8
55 56 55 53 48 44 40 38 38 36 31 27 25 26 28 34 36 35 33 29 25 22 20 20 19 17 16 15 14 14 14 12 10 9 6 5 7 6 3 3 3 4 6
55 55 54 54 51 46 41 39 39 37 31 25 24 25 28 32 34 34 32 28 23 20 19 19 19 19 18 18 18 18 18 19 18 18 16 12 13 13 12 9 7 7 7
53 51 54 55 53 50 46 41 39 37 31 25 22 23 26 29 32 32 31 29 25 22 21 20 20 21 21 22 22 23 24 25 25 24 23 22 20 18 18 16 13 12 11
54 52 52 55 55 53 50 46 42 38 33 28 26 24 25 30 32 33 32 30 28 25 24 23 23 23 24 26 27 28 29 31 31 30 30 26 26 25 23 22 20 18 15
53 55 53 55 57 56 53 50 48 45 41 39 35 31 29 28 30 31 32 32 31 30 29 28 28 29 30 32 32 33 35 35 36 35 35 31 32 31 30 28 27 25 23
46 50 53 54 55 54 54 51 49 47 44 40 38 36 33 31 30 31 32 33 34 34 34 33 34 35 36 36 36 37 39 40 41 40 40 36 36 36 36 34 33 30 28
43 45 49 52 55 55 56 55 53 48 45 43 42 40 39 37 38 37 37 35 34 35 35 36 38 39 41 42 43 44 45 46 46 47 47 41 38 39 43 41 40 37 33
40 41 43 48 52 54 57 57 53 49 47 44 43 41 41 41 41 41 41 42 42 40 39 39 41 42 43 45 47 51 52 53 53 53 54 49 48 45 44 47 49 45 42
39 45 42 46 46 52 54 55 53 50 47 44 43 39 40 41 39 41 42 44 44 45 46 48 47 50 52 52 55 56 56 57 58 59 59 59 56 54 51 49 52 51 51
35 36 42 44 52 54 53 53 52 49 45 43 40 36 37 36 33 32 35 39 38 38 42 45 51 55 57 58 62 61 62 63 62 63 65 65 64 64 59 57 55 56 58
33 37 39 40 49 54 55 55 54 48 42 34 30 34 33 31 28 27 31 35 34 38 42 43 46 51 55 57 59 59 63 64 66 67 67 69 68 67 67 64 62 62 62
27 33 31 34 43 46 51 51 49 41 36 31 28 28 28 28 28 29 30 32 32 36 42 43 44 46 50 52 55 56 59 61 62 65 70 73 71 71 69 67 66 66 66
23 24 27 23 25 29 35 44 41 32 30 29 28 26 26 29 31 31 32 33 35 38 42 47 50 47 53 51 49 53 57 63 66 65 66 67 73 74 74 69 70 70 64
28 31 32 38 43 43 38 39 42 37 31 29 24 20 18 20 24 26 26 28 31 34 37 41 44 47 50 44 52 54 47 54 66 65 68 66 65 67 73 74 69 73 75
56 47 42 38 35 32 34 35 34 31 24 15 9 6 9 14 20 24 28 32 35 41 45 45 47 51 48 50 44 46 41 48 47 55 50 56 60 55 58 62 70 72 72
60 53 45 35 26 26 28 29 28 22 14 7 8 15 21 25 28 29 33 38 41 44 47 48 46 48 46 43 43 43 32 44 45 42 39 42 45 53 61 56 54 63 67
50 42 35 34 32 29 21 15 13 10 5 11 19 23 24 27 28 29 31 35 38 41 44 46 47 46 43 40 38 42 54 62 60 56 50 37 43 50 55 54 57 49 47
37 45 45 40 35 30 24 17 9 8 8 13 18 23 28 34 38 41 44 43 44 47 50 52 50 49 43 37 36 41 49 60 68 73 67 62 61 56 56 66 62 60 55
51 45 41 35 32 28 20 18 19 19 25 29 33 37 42 45 49 51 54 59 61 63 62 61 62 59 56 51 45 43 45 49 53 57 67 65 65 66 58 54 71 74 74
Wind_Direction_500mb
178 180 178 177 177 173 173 170 166 166 164 159 155 153 154 157 154 152 150 150 148 146 142 140 133 126 122 117 114 114 111 103 100 94 93 90 88 88 85 80 79 77 77
175 175 176 175 175 174 169 163 163 163 163 164 164 165 165 168 159 156 152 153 153 150 147 141 134 132 127 124 124 121 115 107 103 99 95 93 89 84 81 79 76 75 72
176 173 174 173 173 174 170 168 165 167 169 171 173 172 172 170 162 159 155 156 158 156 153 147 144 139 135 132 132 124 120 116 109 103 96 91 86 82 78 77 77 78 75
175 173 174 174 173 174 175 175 173 174 176 177 176 177 178 173 165 163 163 163 164 162 157 154 151 147 146 143 138 131 122 116 110 101 91 89 85 82 80 76 73 71 68
176 175 175 175 176 176 180 182 183 181 179 178 179 182 184 178 171 170 169 167 165 163 163 162 159 159 158 157 150 139 130 124 109 98 95 93 91 87 84 78 72 71 71
177 176 177 178 180 181 183 185 188 186 183 182 186 190 191 184 177 176 174 172 169 168 169 171 171 171 171 173 173 164 154 138 104 91 96 95 88 85 81 80 74 63 62
177 179 180 181 183 184 187 189 190 189 187 189 193 195 192 185 182 182 181 178 176 177 180 183 185 186 189 191 196 208 211 224 281 335 354 196 70 76 71 70 67 58 44
179 180 181 184 186 189 191 191 192 192 192 197 198 195 189 187 187 188 188 188 187 188 190 194 198 204 206 209 213 225 236 253 275 278 275 289 290 303 347 17 16 20 19
183 183 183 186 188 191 194 196 194 197 198 199 197 194 191 193 194 196 196 196 198 201 203 206 211 218 222 226 230 237 247 257 268 273 269 278 288 293 297 301 315 324 337
187 189 188 190 192 192 195 199 200 201 203 202 199 198 196 197 201 203 203 206 210 214 217 220 223 228 232 236 240 245 253 261 268 273 272 268 271 280 288 294 301 304 305
190 194 196 196 197 197 198 199 202 204 206 206 204 203 202 205 206 210 214 217 222 227 230 231 233 238 241 242 243 247 253 260 266 268 270 273 266 268 276 284 288 291 292
197 198 202 202 202 202 203 202 203 205 205 208 210 210 211 214 218 221 226 229 234 239 242 242 241 240 242 246 248 249 251 256 261 266 269 268 264 263 268 279 284 285 287
201 206 207 208 208 208 208 209 212 213 215 217 220 222 224 226 230 233 236 239 242 246 249 251 252 253 255 259 260 260 261 262 263 264 264 268 268 266 269 273 275 278 280
211 207 212 214 213 213 214 214 217 219 222 224 227 229 232 234 237 240 244 250 254 259 262 266 269 272 273 272 273 272 271 270 270 271 271 269 273 275 266 268 271 273 272
232 225 220 219 220 219 221 222 222 224 229 232 237 239 242 245 247 249 252 254 256 260 265 266 270 272 273 275 276 278 278 279 276 275 275 274 269 271 268 268 269 268 269
239 236 232 230 228 226 227 230 228 229 234 238 245 250 253 256 259 260 262 263 266 270 269 270 272 274 277 278 279 279 276 277 277 277 277 277 273 270 264 265 266 263 265
240 239 240 236 233 230 229 233 235 236 238 244 253 257 263 265 266 268 269 269 270 282 281 277 276 277 278 280 280 278 280 277 275 272 272 271 271 271 268 264 264 264 265
263 244 239 238 241 238 235 235 237 235 238 249 260 268 264 263 264 267 272 275 278 276 280 281 281 281 280 281 281 282 280 278 276 271 270 273 275 275 274 270 262 261 263
269 252 244 250 245 244 244 244 243 241 237 242 253 256 245 251 256 264 266 271 274 275 278 280 280 281 284 286 287 288 285 282 280 275 267 266 268 270 272 270 269 266 266
270 256 245 243 243 237 229 232 231 222 224 237 242 243 242 247 258 261 266 271 273 275 275 278 280 280 283 281 281 281 282 285 285 278 273 269 268 268 266 267 268 269 266
255 251 223 211 209 213 203 207 213 211 220 244 240 234 237 246 258 269 279 285 286 285 286 287 287 285 284 286 289 286 285 288 283 280 278 275 273 267 267 267 267 266 267
243 221 210 208 207 196 196 204 205 212 203 189 198 248 275 281 282 285 288 288 287 286 285 285 286 287 285 285 273 286 291 292 281 289 285 277 271 270 269 264 262 266 268
213 208 205 205 189 168 167 167 158 156 158 194 267 284 285 284 284 286 289 290 290 291 291 294 295 290 285 279 270 266 281 273 290 288 290 282 271 273 272 272 262 259 264
198 189 181 162 144 132 140 163 178 183 216 274 281 278 281 284 285 287 292 294 296 295 291 292 292 295 292 285 282 271 264 269 274 286 273 278 283 271 266 266 266 256 259
162 148 146 148 156 168 173 165 165 204 252 281 278 280 280 280 284 283 283 280 282 285 285 285 284 285 283 279 279 281 278 276 272 269 277 273 274 272 270 267 259 262 256
148 152 155 166 170 176 190 206 221 234 245 250 256 259 263 267 269 270 273 274 273 271 270 273 276 277 277 277 276 278 278 272 272 266 266 268 265 268 267 266 263 258 256
Wind_Speed_850mb
56 52 50 47 45 43 41 40 48 53 51 46 40 33 26 20 20 29 30 31 32 36 35 31 27 25 25 25 27 28 26 26 27 28 28 27 25 25 23 21 19 18 16
56 54 52 49 48 45 42 44 48 51 48 43 37 30 25 20 23 30 30 31 36 35 31 27 25 25 25 26 28 25 24 26 27 28 29 28 27 25 24 21 19 16 14
56 55 53 52 50 48 44 42 45 46 44 39 33 29 25 22 26 31 31 33 35 30 26 24 25 25 24 25 24 23 24 23 22 23 25 24 25 25 23 20 19 16 12
56 55 55 53 50 49 45 42 42 42 40 37 33 28 23 22 29 33 33 33 31 27 25 24 24 22 22 22 21 20 20 19 19 20 22 22 23 23 21 17 16 15 13
56 55 55 52 48 46 43 41 38 38 37 36 32 28 23 25 32 35 34 32 30 26 24 24 22 20 19 20 17 15 15 14 15 16 15 16 17 17 19 17 15 12 10
56 55 55 52 47 44 41 38 36 35 35 33 29 26 24 29 34 35 33 31 28 24 23 22 20 18 17 17 15 11 8 7 7 7 6 8 10 10 13 14 13 11 9
58 56 55 53 48 44 40 37 36 35 33 29 26 25 27 33 36 35 33 30 26 23 22 21 18 16 16 15 14 12 8 5 1 1 0 0 2 6 7 7 8 8 8
55 56 55 53 48 44 40 38 38 36 31 27 25 26 28 34 36 35 33 29 25 22 20 20 19 17 16 15 14 14 14 12 10 9 6 5 7 6 3 3 3 4 6
55 55 54 54 51 46 41 39 39 37 31 25 24 25 28 32 34 34 32 28 23 20 19 19 19 19 18 18 18 18 18 19 18 18 16 12 13 13 12 9 7 7 7
53 51 54 55 53 50 46 41 39 37 31 25 22 23 26 29 32 32 31 29 25 22 21 20 20 21 21 22 22 23 24 25 25 24 23 22 20 18 18 16 13 12 11
54 52 52 55 55 53 50 46 42 38 33 28 26 24 25 30 32 33 32 30 28 25 24 23 23 23 24 26 27 28 29 31 31 30 30 26 26 25 23 22 20 18 15
53 55 53 55 57 56 53 50 48 45 41 39 35 31 29 28 30 31 32 32 31 30 29 28 28 29 30 32 32 33 35 35 36 35 35 31 32 31 30 28 27 25 23
46 50 53 54 55 54 54 51 49 47 44 40 38 36 33 31 30 31 32 33 34 34 34 33 34 35 36 36 36 37 39 40 41 40 40 36 36 36 36 34 33 30 28
43 45 49 52 55 55 56 55 53 48 45 43 42 40 39 37 38 37 37 35 34 35 35 36 38 39 41 42 43 44 45 46 46 47 47 41 38 39 43 41 40 37 33
40 41 43 48 52 54 57 57 53 49 47 44 43 41 41 41 41 41 41 42 42 40 39 39 41 42 43 45 47 51 52 53 53 53 54 49 48 45 44 47 49 45 42
39 45 42 46 46 52 54 55 53 50 47 44 43 39 40 41 39 41 42 44 44 45 46 48 47 50 52 52 55 56 56 57 58 59 59 59 56 54 51 49 52 51 51
35 36 42 44 52 54 53 53 52 49 45 43 40 36 37 36 33 32 35 39 38 38 42 45 51 55 57 58 62 61 62 63 62 63 65 65 64 64 59 57 55 56 58
33 37 39 40 49 54 55 55 54 48 42 34 30 34 33 31 28 27 31 35 34 38 42 43 46 51 55 57 59 59 63 64 66 67 67 69 68 67 67 64 62 62 62
27 33 31 34 43 46 51 51 49 41 36 31 28 28 28 28 28 29 30 32 32 36 42 43 44 46 50 52 55 56 59 61 62 65 70 73 71 71 69 67 66 66 66
23 24 27 23 25 29 35 44 41 32 30 29 28 26 26 29 31 31 32 33 35 38 42 47 50 47 53 51 49 53 57 63 66 65 66 67 73 74 74 69 70 70 64
28 31 32 38 43 43 38 39 42 37 31 29 24 20 18 20 24 26 26 28 31 34 37 41 44 47 50 44 52 54 47 54 66 65 68 66 65 67 73 74 69 73 75
56 47 42 38 35 32 34 35 34 31 24 15 9 6 9 14 20 24 28 32 35 41 45 45 47 51 48 50 44 46 41 48 47 55 50 56 60 55 58 62 70 72 72
60 53 45 35 26 26 28 29 28 22 14 7 8 15 21 25 28 29 33 38 41 44 47 48 46 48 46 43 43 43 32 44 45 42 39 42 45 53 61 56 54 63 67
50 42 35 34 32 29 21 15 13 10 5 11 19 23 24 27 28 29 31 35 38 41 44 46 47 46 43 40 38 42 54 62 60 56 50 37 43 50 55 54 57 49 47
37 45 45 40 35 30 24 17 9 8 8 13 18 23 28 34 38 41 44 43 44 47 50 52 50 49 43 37 36 41 49 60 68 73 67 62 61 56 56 66 62 60 55
51 45 41 35 32 28 20 18 19 19 25 29 33 37 42 45 49 51 54 59 61 63 62 61 62 59 56 51 45 43 45 49 53 57 67 65 65 66 58 54 71 74 74
Wind_Direction_850mb
178 180 178 177 177 173 173 170 166 166 164 159 155 153 154 157 154 152 150 150 148 146 142 140 133 126 122 117 114 114 111 103 100 94 93 90 88 88 85 80 79 77 77
175 175 176 175 175 174 169 163 163 163 163 164 164 165 165 168 159 156 152 153 153 150 147 141 134 132 127 124 124 121 115 107 103 99 95 93 89 84 81 79 76 75 72
176 173 174 173 173 174 170 168 165 167 169 171 173 172 172 170 162 159 155 156 158 156 153 147 144 139 135 132 132 124 120 116 109 103 96 91 86 82 78 77 77 78 75
175 173 174 174 173 174 175 175 173 174 176 177 176 177 178 173 165 163 163 163 164 162 157 154 151 147 146 143 138 131 122 116 110 101 91 89 85 82 80 76 73 71 68
176 175 175 175 176 176 180 182 183 181 179 178 179 182 184 178 171 170 169 167 165 163 163 162 159 159 158 157 150 139 130 124 109 98 95 93 91 87 84 78 72 71 71
177 176 177 178 180 181 183 185 188 186 183 182 186 190 191 184 177 176 174 172 169 168 169 171 171 171 171 173 173 164 154 138 104 91 96 95 88 85 81 80 74 63 62
177 179 180 181 183 184 187 189 190 189 187 189 193 195 192 185 182 182 181 178 176 177 180 183 185 186 189 191 196 208 211 224 281 335 354 196 70 76 71 70 67 58 44
179 180 181 184 186 189 191 191 192 192 192 197 198 195 189 187 187 188 188 188 187 188 190 194 198 204 206 209 213 225 236 253 275 278 275 289 290 303 347 17 16 20 19
183 183 183 186 188 191 194 196 194 197 198 199 197 194 191 193 194 196 196 196 198 201 203 206 211 218 222 226 230 237 247 257 268 273 269 278 288 293 297 301 315 324 337
187 189 188 190 192 192 195 199 200 201 203 202 199 198 196 197 201 203 203 206 210 214 217 220 223 228 232 236 240 245 253 261 268 273 272 268 271 280 288 294 301 304 305
190 194 196 196 197 197 198 199 202 204 206 206 204 203 202 205 206 210 214 217 222 227 230 231 233 238 241 242 243 247 253 260 266 268 270 273 266 268 276 284 288 291 292
197 198 202 202 202 202 203 202 203 205 205 208 210 210 211 214 218 221 226 229 234 239 242 242 241 240 242 246 248 249 251 256 261 266 269 268 264 263 268 279 284 285 287
201 206 207 208 208 208 208 209 212 213 215 217 220 222 224 226 230 233 236 239 242 246 249 251 252 253 255 259 260 260 261 262 263 264 264 268 268 266 269 273 275 278 280
211 207 212 214 213 213 214 214 217 219 222 224 227 229 232 234 237 240 244 250 254 259 262 266 269 272 273 272 273 272 271 270 270 271 271 269 273 275 266 268 271 273 272
232 225 220 219 220 219 221 222 222 224 229 232 237 239 242 245 247 249 252 254 256 260 265 266 270 272 273 275 276 278 278 279 276 275 275 274 269 271 268 268 269 268 269
239 236 232 230 228 226 227 230 228 229 234 238 245 250 253 256 259 260 262 263 266 270 269 270 272 274 277 278 279 279 276 277 277 277 277 277 273 270 264 265 266 263 265
240 239 240 236 233 230 229 233 235 236 238 244 253 257 263 265 266 268 269 269 270 282 281 277 276 277 278 280 280 278 280 277 275 272 272 271 271 271 268 264 264 264 265
263 244 239 238 241 238 235 235 237 235 238 249 260 268 264 263 264 267 272 275 278 276 280 281 281 281 280 281 281 282 280 278 276 271 270 273 275 275 274 270 262 261 263
269 252 244 250 245 244 244 244 243 241 237 242 253 256 245 251 256 264 266 271 274 275 278 280 280 281 284 286 287 288 285 282 280 275 267 266 268 270 272 270 269 266 266
270 256 245 243 243 237 229 232 231 222 224 237 242 243 242 247 258 261 266 271 273 275 275 278 280 280 283 281 281 281 282 285 285 278 273 269 268 268 266 267 268 269 266
255 251 223 211 209 213 203 207 213 211 220 244 240 234 237 246 258 269 279 285 286 285 286 287 287 285 284 286 289 286 285 288 283 280 278 275 273 267 267 267 267 266 267
243 221 210 208 207 196 196 204 205 212 203 189 198 248 275 281 282 285 288 288 287 286 285 285 286 287 285 285 273 286 291 292 281 289 285 277 271 270 269 264 262 266 268
213 208 205 205 189 168 167 167 158 156 158 194 267 284 285 284 284 286 289 290 290 291 291 294 295 290 285 279 270 266 281 273 290 288 290 282 271 273 272 272 262 259 264
198 189 181 162 144 132 140 163 178 183 216 274 281 278 281 284 285 287 292 294 296 295 291 292 292 295 292 285 282 271 264 269 274 286 273 278 283 271 266 266 266 256 259
162 148 146 148 156 168 173 165 165 204 252 281 278 280 280 280 284 283 283 280 282 285 285 285 284 285 283 279 279 281 278 276 272 269 277 273 274 272 270 267 259 262 256
148 152 155 166 170 176 190 206 221 234 245 250 256 259 263 267 269 270 273 274 273 271 270 273 276 277 277 277 276 278 278 272 272 266 266 268 265 268 267 266 263 258 256